Location: Franzen
(48.6167°N, 15.3833°E)
Time: 00:39:18
(UTC+00:00)

Cosmos 2219 - Pass Details

Date: 29 July 2021
Orbit: 834 x 859 km, 71.1° (Epoch: 22 September)

Event Time Altitude Azimuth Distance (km) Brightness Sun altitude
Exits shadow 22:41:23 32° 119° (ESE) 1,434 4.1 -22.7°
Maximum altitude 22:42:02 33° 105° (ESE) 1,410 4.1 -22.7°
Drops below altitude 10° 22:47:06 10° 44° (NE) 2,504 6.2 -22.8°
Sets 22:49:47 0° 35° (NE) 3,446 7.2 -22.8°
